This is the latest recevied weather packets stored in our database for station/object NI4CE-11. If no packets are shown the sender has not sent any weather packets the latest 10 day(s).
| Time | Temp. | Humidity | Pressure | Rain* | Wind** | Luminosity | Snow |
|---|---|---|---|---|---|---|---|
| 1777992993 | 26.11° C | 100% | 1016.6 hPa | 0 mm | - | - | - |
| 1777992888 | 26.11° C | 100% | 1016.6 hPa | 0 mm | - | - | - |
| 1777992795 | 25° C | 100% | 1016.5 hPa | 0 mm | - | - | - |
| 1777992588 | 26.67° C | 100% | 1016.7 hPa | 0 mm | - | - | - |
| 1777992362 | 27.78° C | 100% | 1016.5 hPa | 0 mm | - | - | - |
| 1777992288 | 27.78° C | 100% | 1016.5 hPa | 0 mm | - | - | - |
| 1777991989 | 25° C | 100% | 1016.5 hPa | 0 mm | - | - | - |
| 1777991988 | 25° C | 100% | 1016.5 hPa | 0 mm | - | - | - |
| 1777991688 | 25° C | 100% | 1016.5 hPa | 0 mm | - | - | - |
| 1777991571 | 25.56° C | 100% | 1016.5 hPa | 0 mm | - | - | - |
| 1777991388 | 25.56° C | 100% | 1016.5 hPa | 0 mm | - | - | - |
| 1777991159 | 25.56° C | 100% | 1016.4 hPa | 0 mm | - | - | - |
| 1777991088 | 25.56° C | 100% | 1016.4 hPa | 0 mm | - | - | - |
| 1777990788 | 25.56° C | 100% | 1016.4 hPa | 0 mm | - | - | - |
| 1777990488 | 25° C | 100% | 1016.3 hPa | 0 mm | - | - | - |
| 1777989888 | 25.56° C | 100% | 1016.2 hPa | 0 mm | - | - | - |
| 1777989588 | 25° C | 100% | 1016.3 hPa | 0 mm | - | - | - |
| 1777989366 | 25° C | 100% | 1016.2 hPa | 0 mm | - | - | - |
| 1777989288 | 25° C | 100% | 1016.2 hPa | 0 mm | - | - | - |
| 1777989109 | 25.56° C | 100% | 1016.2 hPa | 0 mm | - | - | - |
| 1777989050 | 25.56° C | 100% | 1016.2 hPa | 0 mm | - | - | - |
| 1777988988 | 25.56° C | 100% | 1016.2 hPa | 0 mm | - | - | - |
| 1777988688 | 26.11° C | 100% | 1016.2 hPa | 0 mm | - | - | - |
| 1777988507 | 24.44° C | 100% | 1016 hPa | 0 mm | - | - | - |
| 1777988388 | 24.44° C | 100% | 1016 hPa | 0 mm | - | - | - |
* Rain latest hour (hover to see other rain measurements)
** Current wind speed in m/s (hover to see current wind gust speed)